This is the latest recevied weather packets stored in our database for station/object K0KDS. If no packets are shown the sender has not sent any weather packets the latest 1 day(s).
| Time | Temp. | Humidity | Pressure | Rain* | Wind** | Luminosity | Snow |
|---|---|---|---|---|---|---|---|
| 1778045547 | 5.56° C | 53% | 1012 hPa | 0 mm | 0 m/s | - | - |
| 1778044647 | 5.56° C | 52% | 1011.6 hPa | 0 mm | 0 m/s | - | - |
| 1778043747 | 6.11° C | 51% | 1011.5 hPa | 0 mm | 0 m/s | - | - |
| 1778042847 | 6.11° C | 51% | 1011.4 hPa | 0 mm | 0 m/s | - | - |
| 1778041947 | 6.67° C | 50% | 1011.3 hPa | 0 mm | 0 m/s | - | - |
| 1778041047 | 7.22° C | 48% | 1011.3 hPa | 0 mm | 0 m/s | - | - |
| 1778040147 | 7.78° C | 45% | 1011.2 hPa | 0 mm | 0 m/s | - | - |
| 1778039247 | 8.33° C | 43% | 1011.1 hPa | 0 mm | 0 m/s | - | - |
| 1778038347 | 9.44° C | 41% | 1011 hPa | 0 mm | 0 m/s | - | - |
| 1778037447 | 10° C | 39% | 1011 hPa | 0 mm | 0 m/s | - | - |
| 1778036547 | 10.56° C | 38% | 1010.8 hPa | 0 mm | 0 m/s | - | - |
| 1778035647 | 10.56° C | 37% | 1010.6 hPa | 0 mm | 0 m/s | - | - |
| 1778034747 | 11.11° C | 37% | 1010.3 hPa | 0 mm | 0 m/s | - | - |
| 1778033847 | 11.67° C | 36% | 1010.1 hPa | 0 mm | 2.68 m/s, 346° | - | - |
| 1778032947 | 11.67° C | 36% | 1009.7 hPa | 0 mm | 1.79 m/s, 316° | - | - |
| 1778032047 | 11.67° C | 35% | 1009.6 hPa | 0 mm | 0 m/s | - | - |
| 1778031147 | 11.67° C | 35% | 1009.7 hPa | 0 mm | 0 m/s | - | - |
| 1778030247 | 11.67° C | 35% | 1009.5 hPa | 0 mm | 0.89 m/s, 275° | - | - |
| 1778029347 | 12.22° C | 36% | 1009.3 hPa | 0 mm | 0 m/s | - | - |
| 1778028447 | 12.22° C | 34% | 1009.1 hPa | 0 mm | 0 m/s | - | - |
| 1778027547 | 12.22° C | 34% | 1008.9 hPa | 0 mm | 0 m/s | - | - |
| 1778026647 | 12.78° C | 34% | 1008.8 hPa | 0 mm | 0 m/s | - | - |
| 1778025747 | 12.78° C | 33% | 1008.8 hPa | 0 mm | 0.89 m/s, 265° | - | - |
| 1778024847 | 12.78° C | 33% | 1008.7 hPa | 0 mm | 0 m/s | - | - |
| 1778023947 | 13.33° C | 33% | 1008.7 hPa | 0 mm | 0 m/s | - | - |
* Rain latest hour (hover to see other rain measurements)
** Current wind speed in m/s (hover to see current wind gust speed)